FLOCK 4S-25 (47542 NORAD) Tracking and Keplerian Element Data

This shows tracking and keplerian element data for the satellite.

Feedback or suggestion? Click here.




ElementValue
Catalog47542
NameFLOCK 4S-25
Epoch Orbit1106
Epoch Day101.93502678
Epoch Year2021
RAAN164.2924
Inclination97.4939
Eccentricity0.0010245
Argument of Perigee336.9831
Mean Anonmoly23.094
Mean Motion15.12713398
Decay Rate1.421E-05
L11 47542U 21006EC 21101.93502678 .00001421 00000-0 84765-4 0 9998
L22 47542 97.4939 164.2924 0010245 336.9831 23.0940 15.12713398 11064

Live tracking and technical data element details for FLOCK 4S-25 (NORAD 47542). FLOCK 4S-25 can be tracked NOW for your location showing map with azimuth and elevation plus other details from your city location.

Track the satellite on the map from your city or location and see movement details for azimuth, elevation, latitude, longitude, range, height, and movement on the map or in text.







IsCatalogInMostPopularTable: catalog: 47542, numindb: 15
Update: records affected: 1



GetName: 47542 FLOCK 4S-25

Hit Count: updated at: Tue, 13 Apr 2021 03:30:44 GMT